This is the latest recevied weather packets stored in our database for station/object JE6MIQ-13. If no packets are shown the sender has not sent any weather packets the latest 10 day(s).
| Time | Temp. | Humidity | Pressure | Rain* | Wind** | Luminosity | Snow |
|---|---|---|---|---|---|---|---|
| 1777519352 | 16.11° C | 62% | 1013.2 hPa | 0 mm | - | - | - |
| 1777518752 | 16.67° C | 64% | 1013.2 hPa | 0 mm | - | - | - |
| 1777518151 | 16.67° C | 65% | 1013.5 hPa | 0 mm | - | - | - |
| 1777517553 | 16.67° C | 66% | 1013.9 hPa | 0 mm | - | - | - |
| 1777516951 | 16.67° C | 66% | 1013.9 hPa | 0 mm | - | - | - |
| 1777516353 | 16.67° C | 66% | 1013.9 hPa | 0 mm | - | - | - |
| 1777515753 | 16.11° C | 66% | 1014.5 hPa | 0 mm | - | - | - |
| 1777515153 | 16.11° C | 66% | 1014.5 hPa | 0 mm | - | - | - |
| 1777514552 | 16.11° C | 67% | 1014.7 hPa | 0 mm | - | - | - |
| 1777513952 | 16.11° C | 68% | 1015.1 hPa | 0 mm | - | - | - |
| 1777513352 | 15.56° C | 69% | 1015.1 hPa | 0 mm | - | - | - |
| 1777512752 | 15.56° C | 69% | 1015.1 hPa | 0 mm | - | - | - |
| 1777512153 | 15° C | 70% | 1015 hPa | 0 mm | - | - | - |
| 1777511551 | 15.56° C | 68% | 1015 hPa | 0 mm | - | - | - |
| 1777510953 | 15° C | 68% | 1015.1 hPa | 0 mm | - | - | - |
| 1777510354 | 15° C | 69% | 1015.2 hPa | 0 mm | - | - | - |
| 1777509754 | 15° C | 68% | 1015.2 hPa | 0 mm | - | - | - |
| 1777509154 | 14.44° C | 69% | 1015.5 hPa | 0 mm | - | - | - |
| 1777508553 | 13.89° C | 70% | 1015.8 hPa | 0 mm | - | - | - |
| 1777507954 | 13.33° C | 70% | 1015.9 hPa | 0 mm | - | - | - |
| 1777507354 | 13.33° C | 70% | 1015.9 hPa | 0 mm | - | - | - |
| 1777506752 | 13.33° C | 70% | 1015.9 hPa | 0 mm | - | - | - |
| 1777506153 | 13.33° C | 71% | 1015.9 hPa | 0 mm | - | - | - |
| 1777505554 | 13.33° C | 71% | 1015.8 hPa | 0 mm | - | - | - |
| 1777504954 | 12.78° C | 72% | 1015.8 hPa | 0 mm | - | - | - |
* Rain latest hour (hover to see other rain measurements)
** Current wind speed in m/s (hover to see current wind gust speed)